Wind_Speed
11 10 11 11 12 12 12 12 12 12 12 12 12 13 14 13 13 12 11 11 12 11 10 9 8 9 9 10 11 12 13 14 14 13 18 17 11 11 13 12 8 7 8 8 7 8 10 11 11 12 12 12 12 13 13 13 13 10 6 7 7 8 10 8 3 2 2 6 4 6 11 9 10 11 5 8 9 10 11 10 12 17 21 21 21 20 20 18
11 11 11 11 11 11 12 13 13 13 13 12 12 13 13 13 13 12 11 11 11 11 10 8 8 8 9 9 10 11 13 14 15 19 23 18 13 15 17 15 12 9 10 11 9 10 13 12 12 12 13 13 13 14 13 13 13 9 5 7 7 9 10 2 5 9 7 4 3 4 8 6 11 11 7 10 9 10 10 11 13 18 23 20 18 17 17 16
11 11 11 11 11 11 11 12 13 13 13 12 12 12 13 13 13 13 12 11 11 10 9 9 9 8 8 9 8 10 11 12 17 22 23 18 17 18 16 15 15 13 13 12 11 12 13 13 12 12 14 13 13 14 12 12 12 11 9 7 8 12 10 5 9 7 8 6 3 5 4 2 12 15 10 9 10 10 10 11 12 16 21 19 17 15 15 14
11 11 11 11 11 11 11 11 13 13 14 14 13 13 13 13 13 13 12 11 10 10 9 8 8 8 8 7 7 7 7 12 15 17 18 16 17 17 16 16 16 15 15 13 12 13 14 14 13 13 14 12 14 13 11 11 10 11 9 10 9 7 8 4 6 3 6 3 3 4 5 3 8 12 12 10 8 8 9 14 16 18 21 19 18 16 14 13
12 11 11 11 11 10 10 12 13 14 15 15 15 14 14 14 14 13 13 11 9 10 9 8 8 8 8 6 6 4 3 6 4 9 11 12 13 14 16 17 17 16 15 15 13 14 15 16 15 14 13 11 13 12 10 13 11 10 10 17 16 9 9 3 6 3 5 1 2 2 8 6 5 4 10 10 7 6 6 13 19 20 21 19 18 16 14 12
12 12 12 11 11 11 11 12 13 14 14 15 16 15 14 13 14 13 13 11 9 10 9 8 8 7 7 5 5 3 4 3 4 4 7 7 10 13 14 17 18 16 15 15 14 15 16 17 16 14 13 10 12 10 10 14 13 8 9 18 18 11 8 3 6 4 3 6 4 3 5 6 7 5 8 7 5 7 9 16 20 19 20 20 17 16 14 12
13 12 12 12 11 12 12 13 13 14 14 15 16 14 13 13 14 13 12 10 10 10 8 8 8 8 7 5 5 6 11 10 2 4 6 5 9 11 12 16 18 18 17 17 17 17 17 18 17 15 12 10 12 12 12 14 14 10 9 13 12 8 9 3 5 5 7 11 7 2 2 5 10 9 7 7 5 8 15 21 20 18 19 18 16 15 13 12
14 13 12 12 12 12 13 14 13 14 14 15 15 12 11 12 13 13 13 11 10 10 8 8 8 7 7 6 5 7 16 19 11 11 12 11 11 9 10 13 17 20 20 19 19 18 17 18 18 16 11 10 12 13 13 12 13 13 11 12 9 10 12 4 4 4 10 10 5 4 5 8 11 11 7 8 9 10 15 18 17 17 18 16 15 14 12 11
16 15 13 12 12 14 14 14 13 13 13 13 12 10 10 11 12 13 13 11 10 10 8 8 8 8 7 6 4 8 14 17 12 9 10 10 10 9 8 9 15 20 21 20 20 19 18 18 19 17 13 12 13 13 13 11 9 13 15 14 10 10 13 7 4 6 9 10 8 7 11 10 7 11 10 9 11 11 12 14 15 16 17 16 15 13 12 12
17 16 15 13 13 14 15 14 13 13 12 11 10 10 10 11 11 12 11 11 10 9 9 9 9 9 8 5 5 8 8 8 8 6 5 5 8 10 7 7 11 18 21 19 19 20 19 17 17 18 16 13 13 12 13 12 8 10 16 17 12 7 10 9 8 9 10 12 13 11 14 11 6 10 9 11 13 12 14 13 12 15 16 15 13 13 12 12
17 17 16 13 14 15 15 13 13 13 12 11 10 10 11 11 12 12 10 11 10 9 9 10 10 11 11 6 9 9 5 5 6 6 8 8 9 9 7 9 11 16 20 19 19 20 19 18 15 15 13 11 12 12 13 15 10 6 10 15 14 9 9 12 11 13 12 10 14 15 13 11 9 10 9 16 15 13 15 13 11 13 15 15 13 14 14 14
16 16 16 15 15 15 14 13 13 13 12 11 11 11 12 12 12 12 10 10 10 9 9 11 11 13 10 8 17 16 7 4 4 3 8 10 11 11 9 11 13 15 18 19 19 19 19 18 17 15 12 9 10 9 9 15 15 9 8 10 12 11 10 12 13 16 14 10 15 17 10 10 11 11 9 17 17 15 15 13 12 13 15 15 14 16 18 17
17 16 17 16 15 15 14 13 13 13 12 11 12 12 14 14 12 11 10 10 10 9 9 11 12 13 7 11 22 22 9 4 5 4 5 8 11 12 11 12 13 15 17 19 18 17 18 18 17 18 15 10 9 5 5 12 16 10 7 8 9 10 9 11 14 16 14 11 16 16 8 9 12 12 12 15 15 15 15 13 12 13 14 14 15 20 23 18
17 17 17 16 15 15 14 14 14 12 12 12 13 13 14 14 13 11 10 10 10 9 8 10 11 11 7 14 22 25 18 11 11 13 10 8 10 11 12 13 13 14 16 19 18 16 17 17 17 17 16 14 11 6 5 10 12 9 8 7 8 8 8 12 14 14 13 13 20 17 7 9 13 14 16 14 13 13 13 13 12 13 13 17 24 25 22 16
17 17 17 16 15 15 15 15 13 12 12 12 13 13 13 13 12 10 10 10 9 7 8 9 11 9 8 16 18 20 23 19 17 17 15 12 12 12 13 13 13 14 15 18 17 15 16 17 16 14 14 16 15 8 6 8 8 8 8 7 8 8 8 14 16 16 14 14 21 17 7 9 14 16 17 15 12 12 12 13 13 12 17 28 30 24 20 16
17 17 16 16 15 15 15 15 13 12 12 13 13 14 13 12 11 11 10 9 7 6 8 7 8 7 7 12 12 12 19 23 22 19 16 15 15 14 13 12 13 13 14 16 14 12 14 15 14 13 13 14 12 7 6 7 7 8 8 7 9 10 8 12 16 19 17 13 17 17 10 6 12 17 17 16 15 14 11 12 12 15 27 33 27 22 19 16
17 16 16 15 14 15 15 14 13 11 12 13 13 12 11 10 9 9 8 8 5 7 9 5 5 8 11 11 9 11 19 23 24 22 19 17 17 15 13 12 14 13 14 15 13 10 11 12 11 11 13 10 8 7 7 8 8 8 8 8 10 12 10 9 14 18 19 13 13 17 12 3 11 15 17 17 16 14 12 13 14 25 28 27 24 21 19 16
17 16 15 15 14 15 15 14 13 11 13 11 8 7 5 4 5 6 5 5 6 5 4 5 5 6 11 17 18 15 17 21 22 21 20 19 19 17 14 14 14 15 15 16 13 11 12 12 10 8 9 9 9 9 8 9 10 9 9 9 9 11 13 11 14 15 19 14 11 17 13 7 11 11 14 15 14 14 13 9 22 30 24 22 21 19 18 18
17 16 15 15 14 14 14 13 13 12 13 7 4 6 4 2 3 5 5 7 10 7 4 11 17 8 4 12 23 21 16 19 20 20 21 21 20 18 15 15 16 17 16 13 13 15 13 10 10 9 9 11 11 12 12 11 13 13 12 11 10 11 13 13 15 15 18 14 11 15 11 11 11 10 12 14 14 12 8 19 26 26 22 21 19 17 17 17
17 16 14 15 14 14 14 13 12 12 13 6 1 4 5 4 4 7 12 15 18 16 11 17 28 22 16 14 15 19 16 19 21 21 22 21 21 20 17 17 17 17 15 10 12 17 14 9 10 11 11 14 15 16 16 16 15 13 12 11 13 13 11 12 16 17 18 13 11 13 10 13 10 10 9 9 10 8 18 26 22 21 22 21 20 19 18 15
18 16 15 15 15 14 13 12 12 12 12 6 5 9 12 11 4 2 11 17 22 24 22 22 22 22 26 23 10 12 13 17 21 21 21 22 23 19 18 19 16 12 13 14 12 15 15 10 11 14 15 16 16 16 17 18 18 13 11 11 12 12 10 13 17 18 18 12 11 12 13 13 9 9 8 7 10 14 21 21 20 23 22 20 20 19 17 15
19 17 15 16 15 13 12 12 13 12 11 8 8 15 19 13 7 7 3 9 18 25 28 29 24 20 25 26 13 7 11 15 18 20 21 24 24 19 18 18 14 10 13 15 12 11 12 10 13 16 16 16 15 15 17 19 18 14 9 9 10 10 9 12 16 19 16 9 10 15 14 12 10 10 11 14 15 17 21 20 20 21 19 18 17 16 16 14
18 16 15 15 13 12 11 11 12 12 11 10 13 18 19 13 9 9 7 9 12 21 28 29 27 25 25 24 13 8 12 14 16 21 23 24 26 22 19 16 14 13 14 15 13 10 9 11 15 16 15 17 16 15 17 17 13 11 9 8 8 10 10 9 13 18 16 10 11 15 14 9 10 10 11 14 15 16 19 20 19 18 18 17 15 15 15 13
17 16 15 14 12 11 10 10 12 12 11 12 17 19 16 12 8 8 9 11 10 14 23 25 24 26 26 20 13 12 15 16 16 22 26 25 26 23 18 17 15 13 14 17 18 14 10 12 16 17 16 18 17 16 16 13 9 10 11 10 9 12 15 9 11 14 13 13 12 13 12 6 8 9 8 9 12 13 13 16 17 16 16 15 16 16 14 12
17 16 14 12 12 10 9 10 10 8 9 14 16 14 13 12 9 7 8 9 10 11 17 22 23 26 25 19 15 16 16 17 18 21 28 28 26 21 16 17 15 12 16 20 19 14 12 14 18 18 17 18 18 15 16 13 8 10 13 14 13 13 16 11 15 13 10 11 10 12 8 4 6 9 10 9 9 11 11 12 12 12 13 13 14 13 12 12
15 15 13 12 11 8 7 8 6 4 10 16 13 9 11 11 7 6 6 6 7 9 14 19 19 20 25 22 19 19 14 16 20 21 27 29 27 21 14 14 12 13 16 16 12 9 10 15 17 18 18 19 18 14 15 15 9 7 11 16 17 13 15 13 17 13 9 7 9 11 8 5 8 11 12 12 10 12 11 11 10 9 10 10 11 11 11 11
14 13 12 11 10 8 7 6 4 5 12 13 10 9 11 11 7 5 5 6 6 9 14 19 17 16 25 26 23 18 9 12 19 20 27 29 27 24 15 12 11 12 14 11 9 7 11 16 16 17 19 17 15 12 14 17 11 7 11 15 16 15 16 13 17 11 8 7 10 13 11 6 7 11 15 16 12 12 11 10 9 8 9 9 10 10 10 11
13 12 11 10 9 9 9 8 7 7 7 5 7 10 10 10 10 5 4 4 3 8 13 18 17 16 24 27 27 22 10 13 16 18 26 29 28 24 16 14 14 13 15 11 9 9 12 16 16 17 17 12 13 13 15 17 12 10 12 13 15 17 16 10 15 12 9 9 9 13 13 8 6 10 14 17 14 12 11 10 9 9 10 10 11 10 11 12
12 11 10 8 7 8 8 11 10 6 1 3 7 10 8 6 7 5 5 4 4 9 12 17 17 17 24 25 26 24 16 15 16 16 25 28 28 24 15 16 16 14 17 14 11 10 12 16 16 15 14 11 14 16 16 16 12 13 15 13 13 14 13 11 11 11 9 8 9 12 15 9 6 10 13 13 12 12 11 9 9 11 11 11 11 11 11 11
11 10 8 6 6 5 5 9 11 6 1 2 7 9 6 4 5 6 6 5 4 10 13 16 16 18 23 20 19 22 19 16 17 19 22 25 28 26 18 19 18 12 14 15 14 12 13 18 16 12 13 13 14 15 14 14 14 15 16 11 11 10 9 11 8 9 7 8 11 14 17 13 7 8 12 11 11 13 13 11 10 11 12 12 11 11 11 10
11 9 7 6 7 5 5 8 8 5 4 5 7 8 5 4 5 6 7 5 4 11 13 14 15 18 22 19 15 19 19 15 16 19 17 17 22 22 17 15 15 11 11 12 12 13 14 16 12 13 16 14 12 13 14 15 15 14 13 8 8 7 7 8 5 8 6 7 12 15 17 16 8 4 7 7 10 15 16 13 13 13 13 13 11 11 10 9
10 8 7 8 9 7 7 6 3 4 8 7 9 9 7 6 6 6 6 6 3 10 12 13 15 16 21 21 15 18 18 14 15 18 15 13 14 15 14 11 10 10 10 10 11 12 12 12 11 14 17 16 12 11 12 13 13 13 12 8 9 8 6 7 7 8 8 9 13 15 16 12 3 2 7 8 10 16 17 16 17 16 15 13 11 10 9 8
8 7 7 9 11 9 7 5 2 4 7 8 10 9 6 6 7 8 9 5 6 10 12 15 16 17 20 19 15 18 19 15 16 17 17 15 13 14 16 15 14 12 10 10 10 10 10 11 14 13 12 15 15 10 9 11 11 13 12 9 10 9 7 8 7 7 8 10 11 12 12 8 3 4 10 14 15 18 19 19 19 17 15 12 10 9 9 8
7 8 7 9 12 11 7 5 4 3 5 6 8 6 6 7 7 9 11 6 6 9 11 14 16 18 20 17 15 18 16 14 17 17 16 16 13 13 15 17 20 16 9 10 10 10 11 10 13 13 10 14 16 13 11 10 11 12 11 9 9 9 8 7 7 6 7 8 10 11 6 4 5 5 9 14 17 19 20 19 18 16 14 12 10 9 9 8
8 8 8 9 12 13 10 7 6 4 4 6 5 5 7 7 6 8 8 6 4 7 10 14 16 16 17 15 16 20 16 13 17 16 14 15 12 13 14 15 19 17 11 9 8 10 12 10 12 16 15 17 17 16 14 12 10 10 10 9 9 10 8 5 6 6 3 4 8 6 1 5 6 7 10 13 16 18 18 18 18 16 14 12 11 9 8 9
7 7 8 10 12 12 11 9 7 6 6 6 6 6 8 8 5 3 3 7 5 5 8 11 15 13 13 12 13 21 20 14 16 15 12 15 15 16 16 13 18 19 14 9 6 8 11 10 13 18 18 19 18 17 16 12 9 7 10 11 10 12 10 4 6 6 2 3 5 5 6 6 7 6 9 12 13 14 15 17 17 16 15 13 11 10 9 10
6 7 9 12 13 12 12 11 9 8 9 7 7 6 7 8 5 3 6 9 8 8 8 7 12 11 12 12 12 20 21 15 17 14 10 13 14 16 18 16 19 22 18 13 7 7 10 9 13 18 15 17 19 18 18 15 11 8 8 10 9 12 12 5 4 6 5 6 4 7 9 10 7 5 8 13 13 13 13 14 16 16 14 12 12 11 10 10
6 8 12 14 14 13 13 12 11 11 10 7 8 9 8 8 7 9 10 11 10 9 8 5 9 12 13 12 12 19 20 14 15 14 11 11 11 16 19 16 19 22 21 18 10 7 10 9 11 17 15 15 16 15 14 15 17 14 9 9 8 8 9 7 4 6 7 7 4 8 10 9 6 6 11 14 15 15 13 13 14 14 13 13 13 12 11 11
7 10 12 12 14 13 13 13 13 13 9 6 7 7 7 9 10 13 13 11 11 9 7 7 7 11 13 12 12 17 19 15 13 13 11 9 10 17 20 14 17 22 23 21 12 6 9 8 7 15 17 14 11 10 10 11 16 17 11 10 9 7 7 8 6 6 7 7 6 6 7 5 4 8 14 16 15 16 14 12 12 14 14 14 14 13 12 11
7 7 4 11 15 14 13 13 13 11 7 6 7 6 6 7 8 12 14 12 11 5 4 9 9 8 12 15 14 14 16 16 14 11 10 11 11 15 20 17 15 20 24 23 14 7 7 6 5 11 15 13 9 9 12 11 12 14 12 10 9 7 7 7 7 8 8 6 6 5 5 3 3 4 12 16 15 14 14 12 12 15 16 14 14 14 12 12
4 3 4 12 16 17 16 12 10 8 6 7 7 8 8 7 7 12 16 17 12 7 7 9 9 8 8 12 14 14 14 14 15 11 9 12 11 10 17 19 16 18 20 18 14 8 5 6 5 6 11 12 11 13 15 15 11 10 9 9 10 10 8 8 8 9 8 7 7 4 4 5 4 3 4 13 14 13 14 16 15 16 16 15 15 14 13 13
2 2 6 13 15 17 15 9 7 7 6 7 9 9 7 4 7 12 15 15 12 10 8 6 7 10 9 8 10 14 14 11 13 13 9 13 14 9 17 25 22 20 16 13 14 10 4 4 6 6 9 12 14 16 17 18 16 12 11 11 10 9 9 8 8 7 7 8 6 1 4 5 4 6 3 12 15 16 18 19 18 16 16 16 15 15 14 13
5 4 8 13 13 13 11 6 5 7 6 8 14 13 7 4 6 11 13 11 10 8 6 5 7 10 9 10 10 12 16 12 12 14 11 12 15 12 17 27 25 20 16 12 12 11 5 3 6 7 8 10 13 15 17 19 18 14 13 12 9 9 9 8 7 5 4 7 5 3 4 3 4 6 7 18 19 20 19 19 19 17 17 17 16 15 14 14
5 3 8 12 12 12 9 5 5 7 7 11 14 11 8 7 7 10 11 9 8 6 3 5 7 7 8 10 11 8 12 12 12 15 12 9 13 15 19 26 25 17 13 11 10 11 7 5 7 7 7 7 10 12 14 17 15 11 11 14 13 15 15 12 8 3 2 7 7 4 4 3 2 1 11 18 18 19 19 19 19 18 18 17 16 16 15 14
1 2 7 10 11 10 9 6 5 5 6 11 12 9 8 8 9 14 13 10 10 7 3 4 7 7 7 10 11 11 11 11 10 12 12 9 10 14 19 25 23 15 15 17 13 13 8 6 6 7 8 9 10 10 9 11 11 10 11 14 17 19 19 12 6 3 3 5 3 4 6 5 4 7 13 15 15 17 18 19 19 18 18 17 16 16 15 14
3 2 6 8 9 11 11 10 9 7 6 9 10 7 8 8 9 14 13 9 9 9 5 4 7 7 8 10 10 10 11 12 11 9 11 9 9 10 17 23 24 20 20 20 17 12 5 6 8 10 9 6 5 7 10 10 11 11 11 12 15 18 18 11 4 4 5 2 4 5 13 13 9 11 13 13 14 15 16 18 19 18 18 17 16 15 15 15
5 2 7 8 7 8 10 12 12 9 6 8 6 3 7 10 9 8 7 6 7 8 7 6 7 7 7 9 8 9 11 12 13 11 12 10 8 10 16 21 22 20 19 18 17 11 3 6 12 13 9 3 4 2 7 11 12 13 15 15 14 15 16 11 2 2 3 3 5 8 17 17 14 14 14 13 13 13 14 17 18 18 18 17 16 16 15 15
5 1 5 9 8 4 7 10 10 9 8 8 5 3 7 10 8 5 4 5 6 6 5 6 8 9 9 9 6 8 11 10 13 11 12 13 11 10 14 17 16 14 15 16 15 10 3 6 11 11 9 7 4 5 6 9 12 13 15 14 14 14 13 10 4 6 5 5 8 12 16 15 14 16 15 14 15 15 16 17 18 18 18 17 17 16 15 15
5 3 3 2 2 3 5 3 3 7 8 8 7 6 7 8 7 5 5 5 5 5 6 7 8 9 11 9 5 6 10 4 10 10 7 8 11 10 11 13 10 9 13 15 12 8 4 5 9 9 9 10 9 3 7 9 13 14 16 16 16 14 7 6 6 8 13 12 15 17 15 13 12 14 14 16 18 19 18 16 17 18 18 17 17 16 15 14
4 3 5 4 3 6 8 4 4 5 7 8 8 6 5 7 7 6 7 6 4 5 8 10 9 8 7 7 5 7 8 8 2 5 3 4 4 5 7 9 8 10 14 12 8 8 6 5 7 7 8 10 10 2 9 5 2 4 5 5 3 1 6 6 2 12 16 14 16 19 17 11 10 15 18 19 19 19 18 17 17 17 17 17 15 15 15 13
5 3 4 4 2 4 7 4 2 4 4 5 5 3 5 7 7 7 8 9 9 7 7 8 8 6 7 10 6 5 5 10 6 2 6 8 2 6 8 9 10 11 13 10 7 8 6 4 4 2 5 9 9 8 14 13 11 10 10 12 13 11 9 7 4 7 13 17 17 16 12 7 10 17 20 19 19 20 19 19 18 17 17 17 15 16 15 13
5 4 5 4 2 3 4 2 2 4 2 1 4 5 6 8 9 10 8 8 10 11 9 8 7 6 5 6 5 6 7 7 6 6 7 9 3 9 11 12 14 11 10 8 6 6 6 4 3 2 4 6 7 12 15 11 8 7 7 10 9 9 7 7 9 9 10 15 11 8 9 10 14 18 18 17 18 19 19 18 18 18 18 17 16 15 14 13
Wind_Direction
308 305 303 301 300 292 285 289 294 298 298 297 296 294 290 286 283 276 271 267 265 263 261 263 260 266 272 271 273 271 275 273 266 260 254 252 243 233 230 224 219 214 213 203 176 189 212 218 223 223 227 229 226 234 233 221 225 232 231 242 241 236 244 243 224 10 83 119 103 166 179 175 176 197 165 128 145 134 127 99 92 87 86 99 105 122 138 142
310 309 309 308 309 301 287 284 288 295 298 299 295 293 291 286 283 276 269 260 258 259 258 261 257 263 273 271 275 278 280 277 277 266 250 245 244 237 228 226 226 217 212 205 194 204 212 213 216 217 222 229 222 223 227 208 214 231 226 237 237 240 245 244 44 32 45 82 68 151 183 187 169 172 171 168 150 132 136 115 106 100 98 107 113 123 135 140
308 307 309 310 313 309 297 288 289 295 298 299 298 296 293 287 282 276 269 258 251 253 255 257 254 259 269 272 278 284 288 291 288 271 256 246 240 240 233 226 226 221 218 210 207 217 218 219 213 214 222 231 226 216 216 198 201 224 229 240 231 249 257 83 63 42 48 40 53 139 188 211 159 164 183 175 147 158 164 133 129 119 112 117 123 129 134 138
304 305 308 311 311 309 304 298 295 296 297 297 297 297 295 288 281 275 268 259 248 245 249 253 253 255 264 273 277 284 307 306 285 260 255 249 236 240 236 226 223 220 219 207 207 226 227 229 222 216 224 234 230 217 211 195 194 215 223 241 233 285 301 108 101 52 59 31 23 125 197 183 145 165 175 168 160 177 174 156 148 132 126 125 129 136 137 141
300 303 308 310 309 308 304 302 300 298 298 294 292 293 294 289 281 274 266 258 243 239 241 243 246 250 258 265 268 276 316 310 267 220 235 241 232 234 231 223 222 218 215 202 204 230 229 231 231 220 225 239 231 216 214 208 207 222 226 242 251 311 320 172 162 144 94 270 3 128 211 182 125 168 171 174 188 178 167 155 142 132 132 132 135 138 136 141
296 299 304 307 308 308 306 304 303 301 301 299 295 289 290 290 281 272 264 253 236 236 233 232 240 243 250 249 244 224 235 269 94 173 217 222 229 228 224 218 216 213 208 203 209 228 225 226 232 223 221 237 241 225 214 213 213 231 233 241 256 285 290 196 164 155 147 248 237 196 237 161 150 212 194 182 187 158 128 122 129 134 132 132 136 136 138 142
291 294 297 301 304 307 309 308 305 305 304 300 297 291 287 286 280 271 260 246 230 232 223 222 230 233 240 229 230 227 239 251 201 229 246 257 250 227 221 214 209 208 201 205 214 220 220 222 226 225 221 225 242 236 217 214 216 230 244 246 248 250 262 233 144 159 205 233 225 215 317 149 178 210 181 130 102 113 119 119 128 136 131 135 136 132 140 141
288 290 292 294 298 304 310 311 309 309 307 300 294 292 286 281 279 270 259 245 227 227 214 213 218 223 231 209 229 245 241 245 237 246 259 272 261 218 212 210 204 205 199 205 212 215 219 220 222 222 226 223 232 237 222 216 219 226 246 259 243 218 237 234 130 176 200 211 207 195 209 190 194 195 152 119 111 97 114 126 132 139 136 140 136 132 140 134
286 289 289 288 292 300 308 314 313 309 308 302 293 289 284 280 278 268 258 248 229 221 205 205 212 213 216 197 231 265 253 245 229 235 253 262 244 202 195 204 204 202 200 208 212 215 218 219 223 220 227 230 229 235 225 221 219 216 229 250 254 223 223 212 194 212 194 195 196 187 200 203 190 177 149 134 146 125 119 128 135 145 138 130 125 127 131 126
282 285 287 285 287 298 307 310 312 310 307 300 292 286 284 280 274 264 254 246 232 215 199 199 206 203 196 189 244 258 248 224 191 194 217 222 217 201 188 196 206 202 201 210 212 215 219 218 221 223 234 241 240 240 226 223 223 214 221 235 250 241 221 211 210 212 206 204 192 191 202 184 163 185 156 136 153 147 136 135 144 145 134 128 123 123 121 121
276 280 283 282 286 297 303 305 307 308 304 296 289 282 281 279 271 261 250 245 236 213 198 195 201 201 188 206 250 234 195 175 174 195 209 199 205 212 204 199 207 204 204 212 215 214 219 222 221 223 232 242 252 255 238 223 223 228 225 231 236 237 223 213 215 212 211 206 188 199 202 158 165 212 175 148 160 169 156 148 156 148 135 133 125 120 117 119
270 274 278 282 289 294 297 302 304 301 299 293 286 277 275 275 268 259 250 246 238 218 201 195 200 199 194 246 241 213 179 196 200 206 215 209 212 221 219 207 207 208 209 214 217 215 219 222 224 227 224 226 241 258 254 223 220 226 225 233 225 227 228 206 211 213 203 194 189 202 196 153 188 213 161 146 165 179 162 152 163 149 132 132 125 111 105 108
266 268 274 280 287 289 292 301 303 297 293 288 283 278 274 273 270 262 252 244 234 219 202 199 202 196 212 267 235 210 189 211 239 241 219 210 216 220 219 215 212 214 215 218 218 215 219 223 227 235 237 239 231 246 280 223 220 223 217 240 220 216 226 200 208 212 201 186 187 207 203 162 195 191 139 141 171 175 154 160 169 142 133 133 116 98 92 98
263 263 270 277 282 285 288 297 301 294 287 283 280 277 276 275 273 264 254 243 230 215 199 203 204 195 228 263 240 226 221 232 257 247 233 225 219 220 217 216 219 220 218 220 222 215 217 224 231 241 246 249 239 239 265 217 213 221 210 230 226 215 211 199 207 210 207 187 186 214 222 170 190 169 145 154 174 170 159 171 167 145 137 114 97 88 87 95
257 261 265 272 276 281 286 294 298 292 285 283 279 277 278 280 276 267 253 239 231 218 196 197 200 197 253 266 259 247 230 232 250 237 229 230 222 221 214 213 221 220 216 218 225 221 215 220 228 239 239 243 249 249 246 217 200 212 212 213 221 225 206 195 200 209 213 186 184 211 228 189 184 154 154 168 169 175 176 173 168 149 113 96 93 90 89 94
249 255 260 266 269 277 283 290 296 290 285 282 279 280 281 283 278 269 253 240 240 212 186 178 195 209 266 266 264 255 227 224 233 226 223 224 220 221 209 208 215 211 211 213 223 225 214 215 218 229 234 235 244 241 232 223 196 200 218 220 213 221 216 187 189 207 212 183 180 209 230 201 162 149 163 173 173 180 180 175 159 112 96 96 99 98 91 91
242 246 254 260 263 272 278 286 293 289 284 284 291 295 289 288 281 268 255 239 216 178 181 169 186 229 253 259 259 239 219 218 224 222 223 219 215 220 207 200 204 200 202 203 213 219 203 205 206 217 234 233 224 220 221 214 201 198 209 227 218 217 226 185 176 200 206 186 180 209 229 140 127 151 170 179 185 180 184 186 128 92 94 102 103 101 97 92
239 239 247 255 260 268 273 283 289 286 283 291 327 332 301 294 280 261 251 214 169 160 225 212 190 232 243 241 239 228 215 214 216 215 216 213 210 217 208 197 197 192 195 196 202 205 190 196 206 207 222 228 217 213 219 209 204 201 198 221 222 219 230 199 167 185 200 187 181 212 218 146 136 158 171 179 187 188 193 161 103 96 101 102 101 105 104 94
237 234 240 250 256 263 270 281 286 285 282 288 23 13 350 349 303 255 228 196 177 179 227 197 189 205 266 235 221 217 218 209 205 206 206 202 203 211 206 197 196 190 192 193 192 196 190 191 209 213 209 214 214 212 222 219 209 204 198 215 221 220 231 204 166 172 195 191 193 217 199 154 159 162 172 180 184 187 129 84 90 104 107 103 103 102 99 91
233 232 235 246 254 259 266 278 282 281 282 272 248 304 283 216 230 227 205 206 208 210 226 198 191 211 263 278 220 207 217 203 195 198 198 193 192 201 201 193 194 193 196 197 186 193 199 200 208 214 209 209 213 216 227 235 229 214 198 209 224 228 226 190 166 170 192 197 200 206 162 147 158 148 164 174 163 124 82 81 89 100 99 99 98 92 91 90
230 229 231 242 252 257 264 276 277 275 283 275 226 245 235 211 229 229 189 209 220 222 241 233 206 217 250 267 238 185 194 191 189 193 191 187 186 194 195 190 194 194 199 203 192 192 203 215 214 212 213 213 214 217 227 241 246 240 212 204 222 234 220 185 170 170 189 205 201 186 146 138 144 139 133 93 83 77 81 89 92 93 94 92 89 88 89 85
229 222 226 238 247 256 263 270 276 278 281 268 233 236 237 236 315 344 216 234 234 225 237 244 239 238 247 260 260 188 187 186 185 191 186 181 185 192 187 188 199 193 194 204 198 192 203 220 216 211 216 219 219 217 224 237 245 255 242 210 219 231 225 197 177 170 181 209 199 169 142 133 131 120 90 69 72 78 83 87 89 93 93 89 87 86 86 83
229 219 221 233 242 255 262 270 279 277 267 251 239 239 241 252 295 310 277 275 260 228 228 237 240 241 243 251 244 195 207 204 189 192 187 180 186 195 190 188 202 195 193 204 203 197 201 215 214 211 215 218 221 216 222 234 234 247 251 226 217 216 225 213 171 163 171 208 205 151 131 140 140 114 79 71 80 83 83 86 86 88 87 86 85 83 85 83
228 219 219 230 238 249 263 275 274 268 259 244 243 240 241 254 270 292 276 268 274 238 225 227 229 233 234 235 220 198 216 218 203 195 188 185 188 195 200 193 198 203 199 203 208 211 208 205 207 212 213 214 221 216 217 230 225 230 240 237 221 207 223 219 149 151 172 208 206 139 124 152 154 138 114 98 97 91 92 93 85 83 86 83 80 79 80 81
221 216 218 225 233 247 263 271 269 270 254 243 246 236 234 251 256 278 279 263 266 250 233 220 216 226 226 225 220 205 214 223 218 199 186 189 190 191 203 198 198 211 204 203 209 215 215 202 199 209 212 211 220 217 213 220 221 224 231 240 238 216 221 201 147 157 194 208 182 143 147 168 171 172 150 140 127 108 99 101 98 94 91 82 79 81 79 81
218 212 217 222 231 247 252 262 281 275 237 239 247 226 220 238 240 248 253 262 261 233 219 202 198 213 210 211 211 201 213 222 219 204 184 189 195 193 200 197 199 216 206 204 211 214 217 204 196 206 210 209 219 219 208 212 221 222 218 236 248 239 232 198 155 172 211 208 178 172 191 171 182 197 166 153 145 127 113 102 106 105 94 87 86 87 86 86
212 208 217 224 231 239 227 243 277 231 223 231 231 208 202 205 207 225 229 256 257 207 194 181 176 189 192 197 197 194 210 196 206 212 186 185 197 200 207 198 193 216 210 203 212 209 209 207 198 203 209 207 215 219 204 205 218 224 209 224 242 247 244 200 155 175 213 206 202 199 208 200 192 194 166 156 149 141 133 111 107 109 102 100 97 96 94 92
202 202 218 226 236 248 229 229 249 233 219 209 190 184 176 183 199 214 222 244 204 164 169 168 168 175 182 188 190 198 214 170 187 214 187 183 196 200 212 210 196 210 212 206 211 198 197 211 202 197 208 209 208 216 209 202 211 228 211 207 227 242 251 216 165 179 206 207 213 202 207 222 197 176 161 158 157 151 141 127 127 126 120 115 110 108 100 92
197 201 218 227 246 259 228 218 233 233 175 132 166 174 169 173 192 205 230 235 139 131 145 155 164 174 179 184 187 199 215 186 182 195 180 182 198 203 214 217 206 208 215 217 219 198 187 212 214 196 205 213 205 212 214 201 201 234 229 202 216 238 259 255 204 184 192 209 223 203 201 222 211 179 169 170 173 159 141 136 139 137 134 128 122 119 108 100
195 204 216 224 231 237 217 213 213 191 132 215 180 175 177 169 183 195 206 215 157 146 149 151 161 176 181 180 181 195 209 203 186 178 175 180 196 208 216 218 217 212 214 218 223 218 193 203 219 209 207 214 206 206 215 205 196 232 243 209 206 231 255 266 223 180 193 216 225 211 200 211 222 179 168 182 185 154 136 138 143 142 139 135 133 127 114 107
193 204 216 220 211 215 234 230 216 197 237 237 188 184 194 184 210 206 191 222 188 150 151 156 164 175 182 180 177 191 204 210 188 172 174 179 191 207 210 214 223 212 209 215 215 223 209 195 210 221 210 205 204 202 214 213 198 220 244 213 194 210 236 259 211 180 205 222 225 217 202 207 220 183 162 181 173 144 134 140 145 144 140 136 134 127 118 110
190 204 224 218 204 209 217 211 243 243 225 211 188 193 197 190 221 222 209 246 210 154 156 168 174 177 182 181 178 188 199 207 192 175 178 184 184 200 206 203 211 201 202 210 198 210 221 198 198 215 202 195 208 204 205 212 199 210 231 218 200 192 207 238 213 194 205 217 223 212 197 199 217 104 124 116 125 129 129 137 140 140 140 135 130 126 121 106
197 214 227 216 205 209 201 182 274 252 199 188 192 198 202 201 210 221 233 238 151 160 167 167 180 184 180 182 182 188 195 201 194 178 179 192 187 195 209 208 206 206 203 203 191 197 222 207 197 206 191 194 218 214 196 202 194 205 221 221 211 193 191 218 217 212 214 218 231 225 202 178 105 100 120 113 113 119 124 131 135 137 138 133 129 126 116 99
220 225 221 216 211 212 204 198 240 225 168 182 196 197 208 215 211 215 236 240 157 180 187 167 177 185 182 187 186 184 193 202 197 180 175 193 194 189 206 210 208 214 208 199 197 195 211 209 193 199 190 190 216 229 213 196 191 205 215 222 220 200 193 209 212 220 221 220 236 244 232 154 133 126 117 116 118 120 124 128 129 130 131 127 124 119 109 101
231 224 215 217 215 212 207 212 223 201 180 200 210 206 201 210 215 205 229 255 201 204 208 177 174 183 185 190 190 185 193 202 191 183 181 192 199 191 196 206 208 213 209 200 203 198 209 214 187 191 196 190 206 231 223 197 195 209 207 209 220 213 204 198 206 221 227 227 224 219 47 78 112 114 114 121 121 121 125 129 130 127 126 126 122 114 109 106
226 216 216 219 216 213 207 203 199 192 205 215 217 214 205 213 219 182 270 285 263 249 239 185 173 183 182 186 191 186 194 206 188 184 191 194 199 196 192 201 207 211 211 197 188 196 209 214 187 188 203 200 199 219 227 211 198 204 208 207 213 223 223 191 198 216 232 245 213 133 101 108 117 123 133 133 126 125 129 131 129 126 125 126 122 115 110 105
226 221 228 225 214 207 202 196 187 194 216 225 224 226 225 232 252 352 330 312 315 298 273 199 176 187 182 183 190 182 189 206 189 183 193 193 199 199 193 199 207 212 214 201 192 204 213 218 188 184 204 207 197 211 234 236 215 203 208 203 207 228 231 214 199 205 208 232 202 124 135 150 143 146 149 144 140 140 139 133 126 124 126 124 118 115 110 104
231 228 238 230 206 195 194 188 184 200 218 231 239 250 260 258 284 322 318 317 316 287 270 235 188 190 186 184 186 180 187 201 189 184 193 192 196 197 193 198 205 210 211 203 202 204 212 223 187 180 196 203 193 203 232 238 225 219 205 189 205 232 224 212 213 204 203 222 202 131 142 162 164 159 158 159 157 149 141 137 131 126 126 123 118 116 112 107
232 232 232 208 185 183 183 179 190 211 223 230 234 247 263 259 267 292 306 311 302 283 279 284 234 201 193 189 183 178 186 199 193 187 194 193 187 190 194 197 199 205 206 203 204 194 204 230 199 184 191 191 188 200 219 220 214 217 208 191 210 238 226 211 211 213 209 216 212 159 152 174 163 157 167 167 159 149 145 145 137 128 127 125 121 119 115 111
246 250 209 168 172 173 171 180 198 214 224 229 235 242 255 262 268 289 304 302 298 299 274 275 263 222 198 193 185 176 188 202 196 191 196 189 178 182 191 196 194 202 207 207 205 191 197 228 222 187 184 187 193 201 215 219 207 209 210 199 203 219 234 227 216 218 218 216 211 179 159 153 88 148 174 163 153 153 149 141 129 124 127 126 122 120 118 114
256 283 145 160 166 159 164 186 204 215 226 231 244 252 260 291 308 302 299 287 274 254 245 263 277 269 230 203 188 171 183 202 196 194 195 185 185 186 192 196 192 193 204 210 203 186 184 214 223 189 182 200 204 195 209 225 219 204 210 220 215 206 212 226 223 216 219 226 219 186 149 127 53 347 176 151 148 147 135 125 120 122 126 125 123 121 118 116
265 283 165 164 159 154 171 199 205 212 228 229 242 247 244 273 292 290 293 283 262 241 238 251 268 274 272 246 210 177 180 203 199 196 197 190 195 199 194 196 195 188 194 209 201 179 165 215 218 196 193 210 208 192 200 217 218 209 212 227 230 215 210 222 229 219 223 236 228 149 99 103 16 329 159 141 135 124 118 117 119 125 129 126 124 121 117 115
227 224 162 161 163 168 189 219 210 214 229 238 248 253 243 239 266 279 286 280 257 237 230 241 254 261 266 267 250 194 179 194 203 200 202 197 194 198 199 197 197 191 187 202 196 167 149 224 216 199 200 217 215 197 195 208 215 215 212 215 229 234 223 225 237 230 224 232 209 92 85 105 347 326 135 129 119 113 115 121 125 131 131 126 124 121 116 113
228 192 153 165 179 190 208 227 209 211 229 240 243 248 255 260 263 267 277 279 261 241 233 255 260 255 254 268 276 241 196 192 197 197 207 210 187 191 202 199 197 193 183 196 187 154 158 212 205 196 190 204 215 202 194 202 211 220 210 200 211 229 227 220 225 226 241 237 214 118 99 132 339 16 122 119 115 117 123 128 132 134 132 127 124 120 115 111
280 128 151 171 186 205 231 248 242 238 255 256 247 242 253 262 255 251 258 271 271 266 272 286 287 284 279 280 278 265 235 206 188 191 209 216 175 186 207 199 190 187 188 192 173 149 173 203 191 204 200 193 202 199 192 195 204 224 222 202 205 223 235 229 203 198 235 243 227 121 116 122 115 118 119 117 123 129 131 133 136 136 131 127 123 119 114 109
291 161 152 165 186 214 240 256 262 260 274 274 261 252 259 263 262 255 247 248 261 268 272 287 291 289 292 286 268 261 248 210 184 187 205 201 167 188 215 200 186 187 191 184 159 143 193 216 194 213 216 203 207 203 204 203 198 206 219 220 213 217 234 240 207 225 226 132 63 116 136 134 136 134 128 129 134 135 136 139 139 135 130 125 120 116 112 106
289 189 159 164 179 212 232 240 245 240 257 275 267 273 272 261 260 254 239 237 256 269 269 259 263 266 278 278 266 275 263 210 181 186 194 186 169 189 211 203 190 184 181 176 165 155 197 223 206 215 222 248 337 293 230 220 206 203 210 226 230 216 222 230 187 358 274 124 88 137 144 141 151 153 144 141 139 137 141 141 140 137 131 126 121 116 112 107
276 196 165 176 177 205 223 224 237 243 258 273 264 259 267 261 256 243 250 272 263 261 265 254 259 262 258 260 264 283 267 208 175 191 193 176 170 187 207 200 180 161 164 179 182 169 176 218 210 216 226 241 282 319 283 232 211 213 210 216 235 232 225 222 172 60 42 108 128 148 149 142 149 152 147 146 142 140 143 140 139 137 129 125 122 117 114 109
259 320 342 208 188 292 268 213 239 265 267 265 255 253 262 270 274 262 263 277 265 268 271 261 263 257 249 255 257 277 283 229 171 191 189 160 168 187 202 190 163 153 177 191 188 174 195 213 199 211 229 227 221 278 316 257 220 221 217 211 224 230 237 250 206 108 89 111 131 139 139 130 140 148 144 143 140 139 141 140 140 137 130 128 125 117 113 107
279 334 339 333 360 314 279 228 192 234 235 229 238 265 286 278 277 273 272 277 287 287 266 256 259 255 269 295 260 241 306 350 88 169 124 101 155 205 206 185 167 176 192 197 178 168 194 197 179 202 224 216 205 107 26 357 220 209 233 233 217 141 38 14 121 107 101 115 125 127 126 123 137 142 137 138 139 141 143 141 140 137 129 127 125 117 113 108
300 330 339 330 347 287 269 248 227 250 228 212 236 300 309 283 285 295 295 290 287 282 268 271 284 296 340 348 310 267 355 14 13 57 101 110 141 267 242 197 180 181 191 198 180 168 188 184 154 206 223 209 193 113 75 54 47 46 24 19 39 50 40 36 66 96 117 127 124 124 132 137 142 140 137 139 142 145 145 142 138 133 126 124 122 120 117 109
317 323 340 326 295 284 282 283 279 267 261 336 311 306 295 291 293 292 294 290 274 261 256 275 298 313 345 5 336 337 32 52 30 24 73 103 108 288 265 205 184 184 190 190 173 170 187 175 148 191 216 205 171 120 99 73 51 50 8 360 42 72 62 59 56 55 105 129 132 142 148 144 142 141 139 143 147 147 144 140 135 131 129 127 124 120 115 105
Height
1497 1497 1496 1495 1495 1494 1493 1493 1492 1492 1491 1490 1490 1489 1489 1489 1489 1489 1489 1490 1490 1490 1491 1491 1491 1491 1491 1491 1491 1491 1490 1490 1490 1490 1489 1488 1491 1492 1493 1494 1494 1496 1497 1498 1499 1500 1501 1502 1502 1503 1503 1502 1501 1499 1498 1497 1496 1496 1496 1499 1496 1489 1481 1470 1466 1467 1466 1467 1467 1467 1466 1468 1471 1471 1471 1473 1475 1476 1479 1483 1487 1491 1493 1495 1498 1501 1502 1505
1497 1496 1495 1494 1493 1493 1492 1492 1491 1491 1490 1489 1489 1488 1488 1488 1488 1488 1488 1488 1489 1489 1490 1490 1490 1490 1490 1490 1490 1490 1489 1489 1489 1487 1485 1487 1490 1490 1491 1492 1494 1495 1496 1497 1498 1500 1501 1501 1501 1502 1501 1500 1498 1497 1496 1494 1495 1494 1494 1496 1491 1481 1471 1462 1464 1466 1466 1469 1468 1466 1466 1466 1469 1471 1472 1474 1476 1478 1481 1486 1491 1494 1496 1498 1500 1502 1504 1506
1496 1495 1494 1494 1493 1492 1491 1491 1490 1490 1489 1489 1488 1487 1487 1486 1487 1486 1486 1487 1487 1488 1489 1489 1489 1490 1490 1490 1490 1489 1489 1488 1487 1483 1482 1486 1488 1488 1490 1491 1492 1494 1495 1496 1498 1499 1500 1499 1500 1500 1499 1498 1495 1494 1493 1492 1493 1492 1492 1493 1485 1473 1465 1461 1467 1469 1470 1471 1469 1469 1468 1466 1468 1471 1473 1474 1476 1478 1481 1486 1491 1495 1498 1499 1501 1504 1506 1508
1495 1495 1494 1493 1492 1491 1491 1490 1489 1489 1488 1488 1487 1487 1486 1485 1485 1485 1485 1485 1486 1487 1488 1488 1488 1489 1489 1489 1489 1489 1489 1488 1484 1480 1481 1483 1485 1486 1488 1490 1491 1492 1494 1495 1497 1498 1499 1498 1498 1498 1497 1495 1492 1491 1490 1490 1490 1489 1489 1488 1477 1469 1467 1465 1470 1473 1474 1475 1472 1471 1471 1469 1469 1470 1472 1473 1479 1481 1478 1483 1489 1494 1497 1500 1503 1505 1508 1510
1494 1494 1493 1492 1491 1490 1490 1489 1488 1488 1487 1487 1486 1486 1485 1484 1484 1484 1484 1484 1485 1485 1486 1487 1487 1488 1488 1488 1489 1488 1490 1487 1480 1478 1480 1481 1483 1485 1486 1488 1489 1491 1492 1494 1496 1497 1498 1497 1496 1496 1496 1493 1490 1489 1488 1487 1488 1487 1485 1481 1473 1471 1471 1468 1471 1475 1477 1477 1475 1474 1473 1471 1471 1472 1472 1473 1480 1481 1478 1481 1489 1494 1497 1500 1503 1505 1507 1511
1493 1493 1492 1491 1490 1490 1489 1488 1487 1487 1486 1486 1485 1484 1484 1483 1483 1483 1483 1483 1484 1484 1485 1486 1486 1487 1487 1488 1488 1488 1489 1484 1478 1479 1480 1481 1482 1483 1484 1486 1488 1490 1491 1493 1495 1496 1496 1496 1495 1494 1493 1492 1489 1486 1486 1486 1486 1487 1482 1477 1475 1475 1473 1470 1472 1476 1479 1479 1476 1475 1473 1471 1475 1475 1473 1473 1476 1477 1479 1483 1490 1495 1497 1500 1503 1504 1507 1511
1492 1492 1491 1490 1490 1489 1488 1487 1486 1486 1485 1484 1483 1483 1483 1482 1482 1482 1482 1482 1482 1483 1484 1485 1486 1486 1486 1487 1487 1488 1487 1481 1478 1480 1480 1481 1482 1482 1483 1484 1486 1488 1490 1492 1493 1494 1494 1494 1493 1492 1491 1491 1489 1485 1484 1484 1484 1485 1482 1476 1476 1477 1475 1472 1474 1478 1480 1479 1476 1477 1476 1474 1477 1476 1473 1474 1475 1477 1481 1486 1492 1496 1498 1502 1504 1506 1508 1511
1491 1490 1490 1489 1489 1488 1487 1486 1485 1485 1484 1483 1482 1482 1482 1481 1481 1481 1481 1481 1481 1482 1483 1484 1485 1485 1486 1486 1487 1486 1484 1479 1478 1479 1479 1480 1481 1481 1482 1483 1485 1486 1488 1490 1491 1493 1493 1492 1492 1491 1490 1488 1487 1484 1481 1482 1482 1483 1482 1477 1475 1476 1476 1475 1477 1479 1479 1479 1478 1479 1479 1476 1476 1474 1474 1477 1479 1482 1484 1487 1492 1496 1499 1503 1505 1507 1510 1513
1489 1489 1489 1488 1487 1487 1486 1485 1484 1483 1483 1482 1481 1481 1481 1481 1480 1480 1480 1480 1480 1481 1482 1483 1484 1484 1485 1485 1487 1485 1480 1477 1478 1479 1479 1480 1480 1481 1482 1482 1484 1485 1487 1489 1490 1492 1491 1491 1490 1489 1488 1485 1484 1481 1479 1482 1482 1480 1480 1478 1475 1474 1475 1476 1478 1479 1479 1479 1480 1480 1479 1476 1475 1475 1477 1480 1482 1485 1487 1490 1493 1495 1499 1503 1506 1508 1511 1514
1488 1487 1487 1487 1486 1486 1485 1484 1483 1482 1482 1481 1481 1481 1480 1480 1479 1479 1479 1479 1480 1480 1481 1482 1483 1483 1484 1485 1486 1484 1477 1476 1478 1478 1479 1480 1479 1480 1481 1482 1483 1484 1486 1488 1489 1490 1489 1489 1489 1489 1487 1484 1482 1479 1478 1480 1478 1475 1477 1477 1475 1474 1475 1477 1479 1479 1479 1479 1479 1480 1478 1476 1477 1477 1479 1481 1483 1486 1489 1491 1493 1495 1499 1504 1508 1511 1513 1514
1486 1486 1486 1485 1485 1484 1484 1483 1482 1481 1481 1480 1480 1480 1479 1479 1478 1478 1478 1478 1479 1480 1480 1481 1482 1482 1483 1484 1485 1480 1475 1476 1478 1478 1479 1480 1480 1480 1481 1482 1483 1483 1485 1487 1487 1488 1488 1488 1488 1488 1486 1484 1482 1479 1476 1476 1476 1475 1477 1477 1476 1475 1476 1477 1478 1479 1479 1477 1477 1478 1475 1476 1479 1479 1477 1480 1483 1486 1488 1491 1493 1494 1499 1505 1509 1512 1514 1515
1485 1485 1484 1484 1483 1483 1483 1482 1481 1480 1480 1480 1479 1479 1479 1478 1477 1477 1477 1477 1478 1479 1480 1480 1481 1481 1482 1482 1479 1475 1474 1476 1477 1478 1478 1479 1480 1480 1481 1482 1482 1483 1484 1485 1486 1486 1487 1487 1487 1486 1483 1482 1482 1479 1476 1474 1475 1475 1477 1479 1477 1477 1477 1476 1477 1477 1477 1476 1475 1476 1478 1482 1482 1478 1476 1479 1484 1484 1486 1490 1492 1494 1500 1505 1509 1513 1515 1517
1483 1483 1482 1482 1482 1482 1481 1481 1480 1479 1479 1479 1478 1478 1478 1476 1476 1476 1476 1477 1477 1478 1479 1479 1479 1480 1481 1479 1473 1472 1473 1474 1476 1477 1477 1478 1479 1479 1480 1481 1482 1483 1484 1484 1485 1485 1486 1486 1486 1484 1481 1480 1479 1478 1476 1473 1475 1476 1477 1479 1479 1480 1480 1475 1475 1475 1474 1475 1474 1476 1484 1488 1482 1476 1477 1481 1483 1483 1486 1489 1491 1494 1501 1507 1511 1513 1515 1519
1481 1481 1481 1481 1480 1480 1480 1479 1479 1478 1478 1477 1477 1477 1476 1476 1476 1475 1476 1476 1476 1478 1478 1479 1479 1479 1480 1475 1471 1472 1472 1472 1475 1476 1476 1477 1478 1479 1479 1480 1481 1482 1483 1483 1483 1484 1485 1485 1485 1483 1482 1480 1476 1476 1476 1474 1475 1476 1479 1480 1479 1483 1482 1474 1473 1474 1474 1474 1473 1476 1484 1485 1478 1475 1478 1482 1483 1483 1485 1489 1491 1495 1502 1508 1511 1515 1518 1520
1479 1479 1479 1479 1479 1479 1478 1478 1478 1477 1477 1476 1476 1475 1475 1475 1475 1475 1475 1475 1476 1477 1477 1478 1478 1479 1479 1474 1469 1469 1470 1471 1471 1473 1475 1476 1477 1477 1478 1479 1480 1480 1482 1482 1482 1483 1483 1484 1484 1483 1482 1481 1478 1478 1478 1475 1474 1476 1482 1484 1480 1479 1478 1472 1471 1472 1473 1472 1472 1477 1482 1478 1474 1475 1479 1482 1483 1484 1486 1488 1490 1496 1503 1509 1513 1518 1521 1522
1477 1477 1477 1477 1477 1477 1477 1477 1476 1476 1475 1475 1474 1474 1474 1474 1474 1474 1474 1474 1476 1476 1477 1478 1478 1479 1478 1471 1468 1467 1467 1468 1468 1471 1473 1474 1475 1476 1476 1478 1479 1479 1481 1481 1481 1482 1482 1482 1483 1483 1482 1480 1479 1480 1479 1478 1476 1476 1481 1483 1478 1476 1474 1470 1470 1469 1468 1470 1472 1476 1478 1473 1471 1475 1479 1482 1482 1484 1486 1487 1492 1499 1504 1510 1515 1520 1522 1524
1475 1475 1476 1476 1476 1476 1476 1475 1475 1475 1474 1474 1474 1473 1474 1474 1473 1474 1473 1474 1475 1475 1476 1477 1478 1481 1475 1467 1465 1464 1463 1464 1466 1469 1471 1472 1474 1474 1475 1477 1477 1479 1479 1481 1481 1481 1481 1482 1482 1483 1481 1478 1477 1478 1483 1485 1481 1477 1478 1478 1474 1472 1470 1468 1470 1468 1465 1469 1473 1474 1474 1473 1472 1476 1479 1481 1482 1483 1485 1487 1493 1502 1506 1510 1516 1520 1522 1523
1472 1473 1474 1474 1474 1474 1474 1474 1473 1474 1473 1473 1473 1473 1473 1473 1473 1473 1473 1474 1474 1476 1478 1476 1478 1480 1469 1460 1460 1460 1460 1462 1464 1466 1469 1470 1472 1473 1474 1475 1476 1478 1478 1479 1480 1480 1481 1481 1481 1481 1480 1478 1475 1476 1483 1483 1477 1475 1477 1477 1472 1468 1466 1464 1468 1467 1464 1469 1474 1475 1476 1477 1477 1478 1479 1480 1482 1483 1485 1488 1495 1504 1510 1514 1517 1519 1520 1521
1470 1471 1472 1473 1472 1473 1473 1472 1472 1472 1472 1473 1473 1473 1473 1473 1473 1473 1473 1474 1473 1473 1473 1471 1472 1468 1456 1451 1454 1456 1458 1460 1461 1464 1466 1468 1470 1472 1472 1474 1475 1476 1476 1476 1477 1478 1479 1480 1481 1480 1478 1476 1473 1472 1474 1469 1465 1466 1469 1471 1470 1466 1462 1458 1461 1463 1463 1470 1474 1473 1475 1479 1480 1480 1480 1481 1481 1484 1489 1494 1500 1506 1512 1516 1518 1519 1520 1521
1468 1469 1470 1471 1471 1471 1471 1471 1471 1471 1471 1472 1473 1474 1474 1473 1472 1470 1470 1471 1469 1467 1464 1462 1463 1459 1451 1449 1452 1453 1455 1457 1459 1461 1463 1465 1468 1470 1471 1472 1473 1473 1473 1472 1474 1475 1476 1478 1478 1476 1473 1472 1470 1469 1467 1461 1458 1458 1461 1465 1464 1462 1457 1451 1457 1460 1461 1469 1473 1470 1474 1479 1481 1481 1481 1481 1482 1488 1495 1500 1505 1508 1512 1515 1517 1519 1520 1521
1465 1467 1468 1468 1469 1470 1470 1470 1469 1469 1470 1470 1472 1473 1471 1469 1468 1466 1467 1467 1465 1464 1462 1459 1460 1459 1453 1450 1451 1453 1453 1454 1456 1458 1461 1463 1466 1467 1467 1468 1469 1470 1470 1469 1470 1472 1474 1476 1473 1470 1468 1467 1466 1465 1465 1462 1459 1455 1456 1461 1462 1458 1452 1446 1452 1457 1459 1467 1471 1470 1476 1482 1483 1483 1484 1486 1489 1497 1502 1504 1509 1511 1513 1516 1518 1520 1522 1523
1463 1464 1465 1467 1467 1468 1468 1468 1468 1468 1469 1469 1469 1469 1467 1466 1466 1466 1466 1465 1462 1462 1460 1458 1459 1458 1453 1450 1452 1454 1453 1452 1455 1457 1458 1461 1464 1464 1463 1465 1466 1466 1467 1467 1467 1470 1472 1472 1468 1466 1465 1464 1463 1463 1464 1463 1462 1458 1453 1456 1460 1455 1449 1445 1446 1452 1458 1465 1468 1471 1480 1486 1486 1486 1490 1494 1498 1504 1507 1508 1512 1514 1516 1519 1521 1522 1523 1525
1462 1462 1464 1465 1465 1466 1467 1466 1467 1467 1467 1467 1467 1466 1465 1466 1467 1467 1467 1464 1458 1457 1456 1455 1456 1455 1452 1451 1452 1454 1453 1451 1452 1454 1456 1458 1460 1461 1460 1461 1462 1462 1464 1464 1463 1467 1471 1468 1464 1463 1463 1463 1463 1462 1463 1463 1462 1461 1456 1456 1458 1453 1452 1451 1447 1451 1459 1463 1465 1471 1482 1488 1488 1491 1496 1500 1503 1507 1510 1512 1515 1517 1518 1520 1522 1523 1524 1526
1460 1461 1463 1463 1464 1465 1465 1466 1466 1465 1464 1465 1464 1464 1465 1467 1468 1468 1467 1463 1455 1451 1451 1451 1453 1452 1449 1450 1451 1453 1453 1451 1450 1451 1454 1455 1456 1459 1458 1457 1460 1460 1459 1459 1459 1461 1463 1461 1459 1460 1460 1461 1463 1461 1462 1463 1463 1461 1458 1456 1455 1451 1450 1449 1449 1454 1461 1463 1462 1471 1489 1495 1492 1497 1503 1504 1506 1509 1511 1514 1517 1519 1521 1522 1523 1524 1525 1527
1458 1460 1461 1462 1463 1463 1464 1465 1463 1463 1464 1464 1462 1462 1464 1466 1468 1469 1467 1463 1455 1447 1446 1448 1448 1447 1447 1449 1450 1450 1451 1449 1447 1447 1450 1453 1454 1456 1455 1455 1457 1457 1455 1455 1457 1457 1456 1454 1455 1458 1458 1459 1461 1460 1459 1462 1463 1462 1458 1453 1450 1447 1446 1446 1451 1461 1468 1469 1463 1472 1500 1510 1499 1498 1503 1504 1506 1511 1514 1516 1519 1522 1523 1524 1525 1526 1527 1528
1457 1459 1460 1461 1462 1462 1464 1464 1462 1463 1463 1463 1461 1461 1465 1466 1467 1469 1467 1463 1453 1441 1439 1442 1442 1441 1442 1446 1446 1448 1451 1447 1444 1445 1447 1451 1452 1453 1454 1453 1453 1454 1452 1451 1453 1453 1450 1449 1451 1455 1457 1457 1459 1457 1455 1458 1463 1464 1458 1452 1448 1445 1444 1446 1453 1465 1471 1472 1465 1469 1494 1510 1504 1497 1499 1503 1506 1511 1516 1519 1522 1525 1526 1526 1527 1528 1529 1530
1456 1458 1459 1460 1461 1461 1463 1462 1462 1463 1462 1462 1461 1462 1466 1465 1467 1468 1466 1465 1448 1429 1429 1434 1436 1434 1435 1440 1443 1446 1446 1443 1443 1443 1443 1448 1451 1451 1451 1449 1450 1451 1447 1448 1454 1450 1446 1447 1449 1452 1454 1455 1457 1455 1453 1454 1461 1462 1453 1450 1451 1448 1447 1447 1455 1467 1468 1468 1470 1468 1477 1496 1502 1495 1493 1500 1507 1511 1516 1521 1526 1527 1529 1529 1529 1530 1531 1532
1455 1457 1458 1459 1460 1460 1461 1461 1461 1460 1461 1462 1460 1463 1465 1464 1467 1466 1465 1460 1434 1413 1418 1427 1431 1431 1432 1438 1440 1440 1439 1437 1440 1440 1440 1446 1448 1449 1449 1445 1447 1448 1443 1446 1454 1447 1442 1446 1446 1448 1452 1453 1453 1452 1449 1451 1458 1456 1447 1448 1451 1448 1447 1447 1454 1465 1464 1469 1478 1472 1472 1490 1497 1488 1489 1498 1506 1512 1517 1522 1527 1529 1530 1531 1531 1532 1532 1533
1455 1456 1457 1458 1459 1459 1459 1460 1459 1459 1461 1462 1462 1464 1463 1464 1467 1463 1462 1449 1418 1407 1416 1422 1427 1429 1430 1434 1436 1438 1437 1434 1436 1436 1438 1444 1445 1446 1447 1443 1443 1445 1442 1442 1446 1441 1440 1444 1442 1444 1450 1449 1448 1448 1445 1448 1454 1451 1444 1447 1449 1448 1449 1447 1451 1458 1464 1478 1484 1473 1473 1489 1492 1484 1490 1501 1504 1510 1518 1522 1526 1528 1529 1531 1531 1532 1533 1533
1454 1456 1457 1458 1458 1458 1458 1458 1459 1459 1460 1462 1463 1463 1463 1465 1465 1462 1462 1440 1408 1408 1417 1418 1423 1426 1426 1430 1433 1436 1435 1432 1432 1433 1437 1442 1444 1446 1445 1443 1442 1442 1442 1440 1440 1437 1436 1440 1440 1440 1444 1444 1443 1445 1443 1446 1450 1449 1445 1446 1450 1453 1452 1449 1446 1451 1470 1486 1480 1467 1468 1481 1490 1485 1486 1495 1497 1502 1514 1521 1526 1527 1529 1530 1531 1532 1533 1534
1454 1455 1456 1456 1457 1458 1458 1458 1459 1460 1461 1462 1462 1463 1464 1464 1461 1457 1449 1422 1402 1409 1416 1417 1420 1421 1422 1425 1430 1433 1433 1430 1428 1430 1436 1438 1442 1444 1442 1443 1441 1440 1443 1441 1440 1438 1434 1438 1441 1438 1439 1440 1442 1445 1445 1444 1447 1451 1449 1449 1458 1462 1460 1459 1454 1458 1483 1491 1473 1462 1463 1473 1491 1495 1489 1491 1492 1497 1509 1517 1523 1526 1528 1530 1531 1532 1533 1534
1454 1455 1455 1456 1456 1457 1458 1458 1459 1460 1461 1461 1462 1463 1463 1462 1460 1451 1430 1411 1409 1412 1411 1415 1417 1416 1419 1423 1427 1430 1429 1428 1425 1427 1433 1435 1438 1440 1438 1439 1438 1441 1448 1444 1441 1442 1438 1436 1437 1437 1435 1438 1444 1447 1448 1446 1446 1452 1452 1453 1466 1474 1477 1480 1471 1469 1483 1481 1463 1456 1460 1475 1494 1498 1494 1495 1496 1500 1508 1514 1519 1523 1527 1530 1531 1532 1533 1533
1453 1454 1454 1455 1455 1457 1457 1457 1459 1460 1460 1461 1462 1462 1460 1458 1453 1442 1423 1411 1411 1408 1404 1410 1412 1412 1417 1421 1424 1426 1426 1426 1422 1424 1431 1432 1435 1438 1437 1434 1432 1437 1443 1442 1443 1447 1446 1437 1433 1436 1436 1438 1443 1446 1449 1449 1447 1452 1452 1454 1463 1473 1488 1494 1482 1474 1476 1470 1458 1449 1458 1487 1506 1501 1496 1498 1500 1504 1509 1513 1519 1522 1526 1530 1531 1532 1533 1534
1453 1453 1454 1454 1455 1456 1456 1457 1459 1459 1460 1461 1461 1461 1461 1456 1440 1430 1423 1412 1406 1404 1401 1404 1408 1412 1415 1418 1419 1420 1423 1424 1418 1420 1429 1431 1433 1436 1436 1432 1430 1430 1432 1437 1441 1443 1450 1446 1435 1436 1438 1439 1443 1442 1442 1444 1446 1449 1447 1448 1454 1460 1478 1490 1484 1480 1479 1472 1463 1457 1468 1496 1510 1505 1500 1500 1503 1506 1510 1515 1519 1523 1527 1530 1532 1532 1534 1535
1452 1452 1453 1453 1454 1455 1456 1458 1458 1458 1460 1460 1461 1460 1459 1449 1430 1421 1422 1413 1405 1405 1400 1397 1404 1412 1414 1415 1415 1415 1419 1420 1416 1419 1425 1428 1429 1431 1431 1430 1428 1426 1427 1435 1436 1433 1444 1444 1430 1432 1436 1437 1443 1440 1434 1440 1449 1448 1442 1448 1455 1450 1456 1471 1474 1471 1475 1478 1472 1473 1490 1502 1504 1506 1505 1504 1507 1510 1513 1517 1520 1525 1528 1530 1533 1534 1534 1536
1451 1452 1453 1453 1453 1454 1455 1458 1458 1459 1460 1460 1461 1458 1449 1437 1423 1418 1421 1415 1409 1408 1403 1398 1403 1411 1414 1414 1412 1412 1416 1415 1414 1418 1422 1424 1424 1425 1427 1426 1425 1423 1422 1429 1434 1434 1442 1440 1426 1429 1433 1431 1438 1440 1433 1438 1447 1447 1445 1449 1450 1444 1445 1462 1471 1466 1471 1484 1480 1483 1506 1511 1508 1513 1509 1506 1512 1514 1516 1520 1521 1526 1530 1531 1534 1535 1535 1536
1451 1452 1452 1452 1452 1453 1455 1457 1458 1460 1460 1459 1459 1451 1439 1430 1422 1421 1423 1420 1416 1413 1410 1405 1404 1407 1411 1412 1410 1409 1412 1412 1410 1414 1419 1421 1421 1419 1421 1422 1422 1421 1417 1421 1430 1431 1437 1436 1425 1427 1435 1431 1433 1439 1436 1433 1437 1444 1448 1446 1445 1446 1444 1453 1470 1474 1479 1488 1483 1485 1505 1510 1510 1515 1512 1509 1514 1516 1518 1521 1523 1526 1530 1532 1533 1535 1536 1536
1451 1452 1452 1450 1451 1453 1454 1456 1458 1459 1459 1458 1456 1448 1439 1432 1427 1426 1426 1424 1423 1418 1414 1409 1403 1401 1405 1408 1407 1405 1410 1412 1407 1410 1416 1420 1419 1415 1416 1419 1419 1418 1415 1419 1427 1427 1430 1436 1427 1425 1435 1434 1431 1440 1444 1436 1432 1436 1440 1440 1447 1458 1456 1455 1467 1477 1483 1488 1486 1493 1503 1500 1500 1507 1510 1510 1511 1515 1520 1522 1524 1527 1529 1532 1533 1534 1536 1537
1451 1452 1450 1448 1450 1453 1454 1456 1458 1458 1459 1457 1453 1447 1439 1434 1432 1430 1427 1427 1425 1420 1419 1415 1403 1398 1399 1401 1402 1403 1408 1410 1406 1408 1414 1417 1416 1412 1412 1416 1417 1417 1416 1417 1422 1423 1426 1435 1434 1424 1428 1433 1434 1441 1446 1442 1435 1433 1435 1439 1446 1453 1453 1454 1458 1463 1474 1481 1486 1499 1505 1495 1494 1500 1503 1506 1507 1513 1520 1522 1523 1526 1528 1531 1533 1534 1536 1537
1451 1450 1447 1446 1450 1452 1454 1456 1457 1457 1457 1454 1448 1442 1436 1432 1432 1430 1429 1429 1426 1423 1427 1422 1408 1400 1397 1394 1396 1400 1405 1406 1403 1407 1411 1410 1413 1412 1409 1412 1414 1415 1416 1414 1418 1422 1424 1434 1438 1427 1424 1433 1438 1439 1441 1440 1435 1432 1435 1442 1447 1448 1446 1449 1450 1447 1458 1470 1476 1495 1507 1499 1497 1498 1497 1501 1506 1512 1517 1520 1522 1525 1528 1531 1532 1535 1536 1538
1450 1449 1447 1447 1450 1451 1454 1456 1455 1454 1454 1450 1444 1440 1436 1433 1433 1431 1430 1429 1425 1424 1425 1420 1412 1407 1400 1393 1392 1395 1402 1403 1400 1404 1408 1407 1410 1412 1408 1408 1410 1412 1415 1415 1416 1421 1425 1432 1438 1433 1432 1436 1435 1433 1436 1438 1433 1433 1440 1443 1445 1446 1449 1458 1458 1444 1444 1454 1459 1477 1501 1505 1502 1501 1498 1499 1506 1512 1516 1519 1523 1526 1529 1532 1533 1535 1537 1538
1450 1450 1447 1448 1450 1451 1453 1453 1451 1451 1450 1446 1441 1437 1435 1434 1434 1433 1430 1425 1422 1419 1418 1416 1413 1410 1404 1397 1389 1389 1397 1402 1399 1400 1404 1403 1405 1407 1404 1404 1406 1408 1414 1416 1415 1418 1423 1429 1435 1437 1436 1434 1429 1429 1434 1437 1435 1437 1442 1441 1438 1439 1443 1455 1460 1449 1444 1446 1447 1467 1498 1510 1506 1502 1500 1501 1506 1512 1517 1520 1524 1528 1531 1533 1534 1536 1538 1539
1451 1449 1448 1449 1451 1452 1454 1452 1449 1449 1448 1444 1439 1434 1432 1433 1433 1433 1429 1424 1419 1415 1415 1415 1412 1408 1406 1401 1393 1388 1392 1399 1399 1398 1400 1400 1401 1402 1401 1402 1404 1405 1410 1414 1415 1418 1425 1431 1436 1439 1436 1430 1425 1425 1429 1433 1435 1437 1437 1436 1437 1437 1436 1441 1444 1444 1448 1450 1455 1478 1506 1514 1510 1503 1501 1504 1508 1514 1519 1522 1526 1530 1532 1533 1535 1537 1538 1539
1449 1448 1449 1450 1452 1453 1453 1450 1448 1447 1445 1441 1437 1432 1431 1432 1433 1433 1429 1424 1418 1414 1415 1415 1411 1408 1405 1400 1397 1392 1391 1396 1399 1398 1399 1399 1398 1400 1401 1400 1402 1403 1407 1412 1414 1419 1429 1434 1437 1444 1448 1445 1439 1433 1431 1432 1433 1433 1431 1431 1436 1435 1435 1438 1437 1442 1453 1451 1454 1482 1508 1514 1512 1507 1505 1507 1512 1517 1522 1525 1528 1530 1531 1534 1536 1537 1538 1539
1449 1449 1449 1451 1452 1453 1451 1448 1446 1446 1445 1441 1434 1430 1431 1431 1431 1431 1428 1424 1419 1415 1416 1415 1411 1409 1406 1401 1400 1396 1392 1392 1395 1398 1400 1399 1398 1401 1401 1400 1402 1404 1407 1411 1414 1419 1428 1431 1434 1445 1453 1454 1450 1443 1436 1434 1433 1431 1427 1428 1434 1434 1434 1436 1439 1449 1458 1453 1457 1483 1507 1515 1514 1510 1509 1512 1515 1519 1523 1526 1529 1530 1531 1534 1535 1537 1539 1540
1450 1449 1449 1451 1452 1453 1451 1448 1447 1447 1446 1443 1435 1430 1431 1431 1429 1427 1424 1422 1420 1416 1415 1415 1413 1411 1409 1406 1402 1398 1392 1389 1393 1399 1401 1400 1401 1402 1401 1400 1402 1405 1408 1412 1415 1420 1426 1427 1429 1436 1439 1439 1440 1434 1427 1427 1431 1434 1433 1432 1433 1434 1433 1434 1442 1451 1454 1459 1476 1491 1499 1512 1518 1513 1513 1516 1517 1521 1524 1526 1528 1529 1531 1533 1535 1537 1539 1540
1450 1446 1445 1448 1450 1451 1450 1447 1446 1445 1444 1443 1437 1433 1434 1432 1428 1425 1422 1420 1420 1418 1416 1415 1413 1412 1412 1410 1407 1404 1397 1390 1393 1399 1401 1401 1403 1403 1402 1400 1401 1405 1408 1411 1415 1420 1428 1431 1427 1428 1431 1433 1433 1430 1425 1424 1428 1432 1435 1435 1433 1432 1433 1436 1447 1453 1449 1460 1488 1496 1493 1505 1515 1514 1515 1517 1519 1522 1524 1526 1528 1529 1531 1533 1535 1537 1539 1540
1450 1444 1443 1444 1444 1446 1446 1443 1442 1440 1441 1441 1439 1436 1437 1433 1426 1424 1424 1422 1420 1418 1418 1417 1414 1412 1411 1408 1408 1409 1403 1395 1397 1400 1400 1400 1404 1406 1404 1400 1402 1406 1408 1411 1414 1418 1428 1433 1428 1428 1433 1434 1433 1432 1429 1428 1429 1431 1433 1436 1435 1432 1433 1437 1445 1451 1451 1461 1483 1494 1495 1502 1509 1513 1517 1518 1520 1523 1525 1527 1529 1530 1531 1533 1534 1537 1538 1540
1450 1446 1445 1444 1442 1442 1442 1440 1440 1441 1442 1443 1440 1435 1434 1431 1427 1425 1424 1424 1423 1420 1420 1420 1415 1411 1408 1405 1407 1411 1407 1402 1402 1403 1401 1402 1405 1408 1405 1403 1405 1408 1409 1411 1414 1417 1426 1431 1429 1431 1437 1436 1434 1436 1435 1432 1431 1431 1431 1433 1434 1434 1436 1438 1441 1448 1458 1468 1478 1487 1496 1504 1509 1514 1517 1519 1523 1525 1526 1528 1529 1530 1532 1533 1534 1537 1539 1541
1449 1448 1448 1446 1443 1443 1442 1439 1441 1442 1441 1440 1438 1432 1430 1430 1429 1427 1423 1423 1425 1423 1421 1419 1414 1410 1409 1409 1409 1409 1408 1406 1405 1406 1408 1410 1410 1410 1408 1407 1408 1410 1411 1413 1415 1420 1427 1431 1431 1435 1442 1440 1436 1441 1446 1442 1438 1439 1439 1438 1439 1441 1444 1446 1448 1454 1466 1477 1482 1488 1499 1509 1513 1515 1518 1522 1525 1526 1527 1529 1529 1530 1532 1533 1534 1537 1540 1543
1449 1449 1449 1448 1445 1443 1441 1438 1438 1438 1435 1434 1434 1432 1431 1430 1428 1427 1425 1422 1423 1423 1421 1418 1417 1415 1415 1416 1414 1410 1409 1410 1409 1408 1410 1412 1414 1415 1411 1407 1408 1412 1413 1415 1418 1422 1429 1434 1437 1442 1448 1446 1441 1447 1456 1455 1451 1455 1458 1456 1454 1456 1459 1460 1462 1463 1467 1479 1490 1496 1503 1510 1513 1515 1519 1523 1525 1526 1528 1528 1530 1531 1533 1535 1537 1539 1542 1544
1449 1449 1449 1450 1447 1443 1440 1438 1437 1437 1435 1434 1435 1434 1433 1432 1428 1428 1428 1423 1420 1421 1420 1420 1422 1422 1421 1422 1422 1417 1414 1414 1413 1412 1413 1414 1416 1417 1413 1408 1408 1413 1415 1416 1421 1425 1430 1437 1443 1449 1453 1450 1445 1450 1459 1462 1467 1473 1473 1468 1464 1467 1470 1470 1471 1469 1469 1477 1487 1492 1498 1506 1511 1514 1519 1522 1524 1526 1527 1529 1531 1532 1534 1537 1539 1540 1543 1544